Location: Devore Heights
(34.2372°N, 117.4156°W)
Time: 00:08:46
(UTC+00:00)

Transit 4A - Pass Details

Date: 16 September 2024
Orbit: 864 x 978 km, 66.8° (Epoch: 13 October)

Event Time Altitude Azimuth Distance (km) Brightness Sun altitude
Rises 09:58:11 0° 204° (SSW) 3,431 - -41.8°
Reaches altitude 10° 10:00:37 10° 204° (SSW) 2,502 - -41.4°
Maximum altitude 10:06:24 87° 117° (ESE) 883 - -40.5°
Exits shadow 10:10:00 25° 27° (NNE) 1,715 9.7 -39.9°
Drops below altitude 10° 10:12:21 10° 27° (NNE) 2,568 10.8 -39.5°
Sets 10:14:53 0° 27° (NNE) 3,528 11.7 -39.1°
